{"data":{"norad_id":48093,"intl_designator":"2021-027B","name":"STARLINK-2404","alt_names":[],"object_type":"PAYLOAD","status":"ACTIVE","operator":null,"country":"US","launch_date":"2021-04-07","launch_site_code":"AFETR","launch_vehicle":null,"mission":null,"orbit_class":"UNKNOWN","rcs_meters":null,"size_class":null,"mass_kg":null,"dimensions":null,"purposes":["comms"],"wikipedia_slug":null,"has_3d_model":false,"image_url":null,"decayed_at":null,"tle_current":{"epoch":"2026-09-20T04:36:08.020800Z","epoch_age_seconds":55867,"freshness":"FRESH","line1":"1 48093U 21027B   26263.19175950  .00001217  00000+0  50967-4 0  9993","line2":"2 48093  53.1600 329.7569 0001301  79.2012 280.9136 15.31700818302466","mean_motion":15.31700818,"eccentricity":0.0001301,"inclination_deg":53.16,"raan_deg":329.7569,"arg_perigee_deg":79.2012,"mean_anomaly_deg":280.9136,"bstar":5.0967e-5,"rev_number":30246,"period_min":94.013137753642,"perigee_km":469.84651823146,"apogee_km":471.62859539114,"semimajor_km":6848.8745568113,"source":"CELESTRAK","updated_at":"2026-09-20T09:00:38.760817Z"}}}